Hauptseite
METAR-TAF:

METAR-TAF

Flughäfen :

Militärflugplatz Deelen

Arnheim, Niederlande

Breite: 52-04N, Länge: 005-53E, Höhe: 48 m

Beobachtung

Neuester Wetterbericht von vor 34 Minuten, um 05:25 UTC
Wind 8 kt aus Süd/Südwest, variierte zwischen Südost und West
Temperatur 8°C
Luftfeuchtigkeit 87%
Luftdruck 1018 hPa
Sichtweite 10 km oder mehr
Durchbrochene Bewölkung in der Höhe von 1000 ft
Geschlossene Wolkendecke in der Höhe von 1300 ft

METAR: EHDL 210525Z AUTO 21008KT 140V280 9999 BKN010 OVC013 08/06 Q1018 GRN

Zeit: 06:59 (05:59 UTC)


TAF: fehlend

Wetterbeobachtungen und Prognosen von mehr als 4000 Flughäfen (METAR und TAF Bericht).

Die verfügbaren Stationen werden durch gelbe und rote Markierungen auf der Karte dargestellt.

Führen Sie die Maus auf sie, um den Namen der Station zu sehen.

Darauf klicken, um die Beobachtung von Wetterbeobachtungen und Prognosen zu sehen.

Um die Karte zu ändern : klicken Sie auf den grünen Tasten mit einem schwarzen Kreuz Zum Vergrößern, auf den grünen Button mit einem Gedankenstrich zu verkleinern, oder auf die grünen Pfeile für benachbarte Karten.


METAR-TAF: